Tracking 23757 objects as of 26-Oct-2021
HD Live streaming from Space Station
objects crossing your sky now

IRIDIUM 33 DEB

Track IRIDIUM 33 DEB now!
10-day predictions


NORAD ID: 34525
Int'l Code: 1997-051HS
Perigee: 770.4 km
Apogee: 778.1 km
Inclination: 86.4 °
Period: 100.2 minutes
Semi major axis: 7145 km
RCS: 0.0234 m2 (small)
Launch date: September 14, 1997
Source: United States (US)
Launch site: TYURATAM MISSILE AND SPACE COMPLEX (TTMTR)

Note: This is SATELLITE DEBRIS
aabbcc
Your satellite tracking list
Your tracking list is empty




NASA's NSSDC Master Catalog

Two Line Element Set (TLE):
1 34525U 97051HS  21298.59841608  .00000323  00000-0  10150-3 0  9992
2 34525  86.3740 326.9956 0005382  33.8406  93.8623 14.37391487664308
Source of the keplerian elements: AFSPC